This is the latest recevied weather packets stored in our database for station/object WD4DAN-13. If no packets are shown the sender has not sent any weather packets the latest 10 day(s).
| Time | Temp. | Humidity | Pressure | Rain* | Wind** | Luminosity | Snow |
|---|---|---|---|---|---|---|---|
| 1777944409 | 19.44° C | 60% | - | 0 mm | - | - | - |
| 1777944107 | 18.89° C | 58% | - | 0 mm | - | - | - |
| 1777943802 | 18.89° C | 61% | - | 0 mm | - | - | - |
| 1777943500 | 18.89° C | 59% | - | 0 mm | - | - | - |
| 1777943200 | 19.44° C | 58% | - | 0 mm | - | - | - |
| 1777942897 | 19.44° C | 55% | - | 0 mm | - | - | - |
| 1777942592 | 20° C | 57% | - | 0 mm | - | - | - |
| 1777942290 | 20° C | 53% | - | 0 mm | - | - | - |
| 1777941987 | 20.56° C | 55% | - | 0 mm | - | - | - |
| 1777941684 | 20.56° C | 55% | - | 0 mm | - | - | - |
| 1777941381 | 21.11° C | 53% | - | 0 mm | - | - | - |
| 1777941079 | 21.67° C | 52% | - | 0 mm | - | - | - |
| 1777940774 | 21.67° C | 49% | - | 0 mm | - | - | - |
| 1777940473 | 21.67° C | 49% | - | 0 mm | - | - | - |
| 1777940169 | 22.22° C | 49% | - | 0 mm | - | - | - |
| 1777939867 | 22.78° C | 46% | - | 0 mm | - | - | - |
| 1777939564 | 22.78° C | 46% | - | 0 mm | - | - | - |
| 1777939262 | 23.33° C | 47% | - | 0 mm | - | - | - |
| 1777938958 | 23.89° C | 43% | - | 0 mm | - | - | - |
| 1777938655 | 24.44° C | 45% | - | 0 mm | - | - | - |
| 1777938352 | 24.44° C | 43% | - | 0 mm | - | - | - |
| 1777938049 | 25° C | 43% | - | 0 mm | - | - | - |
| 1777937744 | 25° C | 41% | - | 0 mm | - | - | - |
| 1777937441 | 25° C | 41% | - | 0 mm | - | - | - |
| 1777937138 | 25.56° C | 40% | - | 0 mm | - | - | - |
* Rain latest hour (hover to see other rain measurements)
** Current wind speed in m/s (hover to see current wind gust speed)